Terminal Aerodrome Forecast
Issued by NWS Brownsville, TX

Home | Current Version | Previous Version | Text Only | Print | Product List | Glossary On
Versions: 1 2 3 4 5 6 7 8 9 10 11 12 13 14 15 16
000
FTUS44 KBRO 290531
TAFBRO
TAF
KBRO 290531Z 2906/3006 15008KT P6SM SKC
      TEMPO 2909/2912 6SM HZ FEW020
     FM291400 16015G22KT P6SM SCT025
     FM300100 14012KT P6SM SCT250=

USA.gov is the U.S. government's official web portal to all federal, state and local government web resources and services.